| time (UTC) | temp C | wind direction | speed KPH | gust KPH | rain 1hr cm | rain 24hr cm | rain mn cm | humidity % | barometer mb |
| 20260507044519 | -1 | 360 | 0.0 | 0.0 | 0.00 | 0.00 | 0.00 | 79 | 1013.5 |
| 20260507044011 | -1 | 360 | 0.0 | 0.0 | 0.00 | 0.00 | 0.00 | 79 | 1013.5 |
| 20260507043512 | -1 | 360 | 0.0 | 0.0 | 0.00 | 0.00 | 0.00 | 79 | 1013.5 |
| 20260507043010 | -1 | 360 | 0.0 | 0.0 | 0.00 | 0.00 | 0.00 | 79 | 1013.6 |
| 20260507042511 | -1 | 360 | 0.0 | 1.6 | 0.00 | 0.00 | 0.00 | 79 | 1013.6 |
| 20260507042010 | -1 | 360 | 0.0 | 3.2 | 0.00 | 0.00 | 0.00 | 79 | 1013.8 |
| 20260507041508 | -1 | 360 | 0.0 | 3.2 | 0.00 | 0.00 | 0.00 | 79 | 1013.7 |
| 20260507041007 | -1 | 360 | 0.0 | 0.0 | 0.00 | 0.00 | 0.00 | 78 | 1013.8 |
| 20260507040506 | -1 | 360 | 0.0 | 0.0 | 0.00 | 0.00 | 0.00 | 77 | 1013.9 |
| 20260507040005 | 0 | 360 | 0.0 | 0.0 | 0.00 | 0.00 | 0.00 | 76 | 1013.9 |
| 20260507035504 | 0 | 360 | 0.0 | 0.0 | 0.00 | 0.00 | 0.00 | 75 | 1014.0 |
| 20260507035004 | 0 | 360 | 0.0 | 0.0 | 0.00 | 0.00 | 0.00 | 74 | 1014.0 |
| 20260507034505 | 0 | 360 | 0.0 | 0.0 | 0.00 | 0.00 | 0.00 | 75 | 1014.0 |
| 20260507034002 | 0 | 360 | 0.0 | 0.0 | 0.00 | 0.00 | 0.00 | 75 | 1014.1 |
| 20260507033501 | 0 | 360 | 0.0 | 0.0 | 0.00 | 0.00 | 0.00 | 74 | 1014.2 |
| 20260507033103 | 0 | 360 | 0.0 | 0.0 | 0.00 | 0.00 | 0.00 | 73 | 1014.3 |
| 20260507032559 | 0 | 360 | 0.0 | 0.0 | 0.00 | 0.00 | 0.00 | 71 | 1014.3 |
| 20260507032058 | 0 | 360 | 0.0 | 0.0 | 0.00 | 0.00 | 0.00 | 68 | 1014.3 |
| 20260507031558 | 1 | 360 | 0.0 | 0.0 | 0.00 | 0.00 | 0.00 | 67 | 1014.3 |
| 20260507031057 | 1 | 360 | 0.0 | 0.0 | 0.00 | 0.00 | 0.00 | 67 | 1014.4 |
| 20260507030556 | 1 | 360 | 0.0 | 0.0 | 0.00 | 0.00 | 0.00 | 66 | 1014.4 |
| 20260507030057 | 1 | 360 | 0.0 | 0.0 | 0.00 | 0.00 | 0.00 | 66 | 1014.4 |
| 20260507025558 | 1 | 360 | 0.0 | 0.0 | 0.00 | 0.00 | 0.00 | 65 | 1014.6 |
| 20260507025057 | 1 | 360 | 0.0 | 0.0 | 0.00 | 0.00 | 0.00 | 66 | 1014.5 |
| 20260507024557 | 1 | 360 | 0.0 | 0.0 | 0.00 | 0.00 | 0.00 | 65 | 1014.6 |
| 20260507024104 | 1 | 360 | 0.0 | 0.0 | 0.00 | 0.00 | 0.00 | 64 | 1014.5 |
| 20260507023600 | 1 | 360 | 0.0 | 0.0 | 0.00 | 0.00 | 0.00 | 64 | 1014.6 |
| 20260507023056 | 2 | 360 | 0.0 | 0.0 | 0.00 | 0.00 | 0.00 | 63 | 1014.6 |
| 20260507022556 | 2 | 360 | 0.0 | 0.0 | 0.00 | 0.00 | 0.00 | 62 | 1014.5 |
| 20260507022057 | 2 | 360 | 0.0 | 0.0 | 0.00 | 0.00 | 0.00 | 61 | 1014.4 |
| 20260507021605 | 2 | 360 | 0.0 | 0.0 | 0.00 | 0.00 | 0.00 | 60 | 1014.4 |
| 20260507021058 | 3 | 360 | 0.0 | 0.0 | 0.00 | 0.00 | 0.00 | 60 | 1014.6 |
| 20260507020556 | 3 | 360 | 0.0 | 0.0 | 0.00 | 0.00 | 0.00 | 60 | 1014.5 |
| 20260507020057 | 3 | 360 | 0.0 | 0.0 | 0.00 | 0.00 | 0.00 | 60 | 1014.5 |
| 20260507015556 | 3 | 360 | 0.0 | 0.0 | 0.00 | 0.00 | 0.00 | 59 | 1014.5 |
| 20260507015055 | 3 | 360 | 0.0 | 3.2 | 0.00 | 0.00 | 0.00 | 59 | 1014.4 |
| 20260507014558 | 3 | 360 | 0.0 | 4.8 | 0.00 | 0.00 | 0.00 | 58 | 1014.4 |
| 20260507014055 | 4 | 360 | 1.6 | 6.4 | 0.00 | 0.00 | 0.00 | 59 | 1014.3 |
| 20260507013555 | 4 | 360 | 4.8 | 8.0 | 0.00 | 0.00 | 0.00 | 57 | 1014.3 |
| 20260507013054 | 4 | 360 | 3.2 | 8.0 | 0.00 | 0.00 | 0.00 | 57 | 1014.3 |
| 20260507012601 | 4 | 360 | 4.8 | 8.0 | 0.00 | 0.00 | 0.00 | 57 | 1014.5 |
| 20260507012054 | 5 | 360 | 1.6 | 4.8 | 0.00 | 0.00 | 0.00 | 57 | 1014.5 |
| 20260507011557 | 4 | 360 | 0.0 | 6.4 | 0.00 | 0.00 | 0.00 | 56 | 1014.5 |
| 20260507011053 | 5 | 360 | 0.0 | 6.4 | 0.00 | 0.00 | 0.00 | 56 | 1014.5 |
| 20260507010554 | 5 | 360 | 3.2 | 6.4 | 0.00 | 0.00 | 0.00 | 57 | 1014.4 |
| 20260507010053 | 5 | 360 | 3.2 | 6.4 | 0.00 | 0.00 | 0.00 | 56 | 1014.5 |
| 20260507005553 | 5 | 360 | 0.0 | 4.8 | 0.00 | 0.00 | 0.00 | 56 | 1014.5 |
| 20260507005053 | 5 | 360 | 0.0 | 4.8 | 0.00 | 0.00 | 0.00 | 55 | 1014.5 |
| 20260507004552 | 5 | 360 | 0.0 | 6.4 | 0.00 | 0.00 | 0.00 | 55 | 1014.6 |
| 20260507004052 | 5 | 360 | 0.0 | 4.8 | 0.00 | 0.00 | 0.00 | 56 | 1014.6 |
| 20260507003552 | 5 | 360 | 0.0 | 8.0 | 0.00 | 0.00 | 0.00 | 56 | 1014.6 |
| 20260507003050 | 5 | 360 | 0.0 | 8.0 | 0.00 | 0.00 | 0.00 | 56 | 1014.6 |
| 20260507002550 | 5 | 360 | 0.0 | 8.0 | 0.00 | 0.00 | 0.00 | 56 | 1014.7 |
| 20260507002050 | 5 | 360 | 1.6 | 6.4 | 0.00 | 0.00 | 0.00 | 55 | 1014.8 |
| 20260507001550 | 5 | 360 | 1.6 | 6.4 | 0.00 | 0.00 | 0.00 | 55 | 1014.7 |
| 20260507001048 | 5 | 360 | 1.6 | 9.7 | 0.00 | 0.00 | 0.00 | 55 | 1014.8 |
| 20260507000548 | 5 | 360 | 3.2 | 9.7 | 0.00 | 0.00 | 0.00 | 56 | 1014.8 |
| 20260507000048 | 5 | 360 | 1.6 | 9.7 | 0.00 | 0.00 | 0.00 | 56 | 1014.8 |
| 20260506235548 | 5 | 360 | 1.6 | 8.0 | 0.00 | 0.00 | 0.00 | 56 | 1014.9 |
| 20260506235047 | 5 | 360 | 1.6 | 12.9 | 0.00 | 0.00 | 0.00 | 55 | 1014.9 |
| 20260506234603 | 5 | 360 | 4.8 | 12.9 | 0.00 | 0.00 | 0.00 | 55 | 1015.0 |
| 20260506234047 | 5 | 360 | 1.6 | 8.0 | 0.00 | 0.00 | 0.00 | 56 | 1015.0 |
| 20260506233547 | 5 | 360 | 0.0 | 6.4 | 0.00 | 0.00 | 0.00 | 55 | 1015.0 |
| 20260506233047 | 5 | 360 | 1.6 | 6.4 | 0.00 | 0.00 | 0.00 | 57 | 1015.1 |
| 20260506232549 | 5 | 360 | 1.6 | 6.4 | 0.00 | 0.00 | 0.00 | 56 | 1015.1 |
| 20260506232046 | 5 | 360 | 0.0 | 4.8 | 0.00 | 0.00 | 0.00 | 55 | 1015.1 |
| 20260506231546 | 5 | 360 | 1.6 | 9.7 | 0.00 | 0.00 | 0.00 | 55 | 1015.2 |
| 20260506231046 | 5 | 360 | 1.6 | 14.5 | 0.00 | 0.00 | 0.00 | 56 | 1015.2 |
| 20260506230548 | 5 | 360 | 6.4 | 14.5 | 0.00 | 0.00 | 0.00 | 55 | 1015.2 |
| 20260506230045 | 5 | 360 | 8.0 | 17.7 | 0.00 | 0.00 | 0.00 | 56 | 1015.2 |
| 20260506225548 | 5 | 360 | 8.0 | 19.3 | 0.00 | 0.00 | 0.00 | 55 | 1015.2 |
| 20260506225045 | 5 | 360 | 12.9 | 19.3 | 0.00 | 0.00 | 0.00 | 55 | 1015.2 |
| 20260506224547 | 5 | 360 | 8.0 | 12.9 | 0.00 | 0.00 | 0.00 | 55 | 1015.2 |
| 20260506224046 | 5 | 360 | 3.2 | 9.7 | 0.00 | 0.00 | 0.00 | 56 | 1015.2 |
| 20260506223548 | 5 | 360 | 0.0 | 9.7 | 0.00 | 0.00 | 0.00 | 56 | 1015.3 |
| 20260506223049 | 5 | 360 | 3.2 | 12.9 | 0.00 | 0.00 | 0.00 | 55 | 1015.3 |
| 20260506222545 | 5 | 360 | 1.6 | 8.0 | 0.00 | 0.00 | 0.00 | 56 | 1015.3 |
| 20260506222045 | 5 | 360 | 3.2 | 20.9 | 0.00 | 0.00 | 0.00 | 57 | 1015.3 |
| 20260506221544 | 5 | 360 | 12.9 | 20.9 | 0.00 | 0.00 | 0.00 | 56 | 1015.3 |
| 20260506221047 | 5 | 360 | 1.6 | 17.7 | 0.00 | 0.00 | 0.00 | 56 | 1015.3 |
| 20260506220543 | 5 | 360 | 9.7 | 20.9 | 0.00 | 0.00 | 0.00 | 56 | 1015.4 |
| 20260506220044 | 5 | 360 | 9.7 | 19.3 | 0.00 | 0.00 | 0.00 | 55 | 1015.4 |
| 20260506215543 | 5 | 360 | 4.8 | 17.7 | 0.00 | 0.00 | 0.00 | 55 | 1015.4 |
| 20260506215046 | 5 | 360 | 4.8 | 19.3 | 0.00 | 0.00 | 0.00 | 55 | 1015.4 |
| 20260506214544 | 5 | 360 | 1.6 | 6.4 | 0.00 | 0.00 | 0.00 | 55 | 1015.4 |
| 20260506214043 | 5 | 360 | 0.0 | 12.9 | 0.00 | 0.00 | 0.00 | 54 | 1015.4 |
| 20260506213545 | 5 | 360 | 6.4 | 12.9 | 0.00 | 0.00 | 0.00 | 55 | 1015.5 |
| 20260506213042 | 5 | 360 | 3.2 | 9.7 | 0.00 | 0.00 | 0.00 | 54 | 1015.5 |
| 20260506212543 | 5 | 360 | 0.0 | 14.5 | 0.00 | 0.00 | 0.00 | 55 | 1015.5 |
| 20260506212042 | 5 | 360 | 9.7 | 20.9 | 0.00 | 0.00 | 0.00 | 55 | 1015.5 |
| 20260506211542 | 5 | 360 | 6.4 | 19.3 | 0.00 | 0.00 | 0.00 | 56 | 1015.6 |
| 20260506211041 | 5 | 360 | 1.6 | 22.5 | 0.00 | 0.00 | 0.00 | 55 | 1015.6 |
| 20260506210542 | 5 | 360 | 6.4 | 22.5 | 0.00 | 0.00 | 0.00 | 55 | 1015.6 |
| 20260506210041 | 5 | 360 | 11.3 | 20.9 | 0.00 | 0.00 | 0.00 | 54 | 1015.6 |
| 20260506205541 | 5 | 360 | 3.2 | 20.9 | 0.00 | 0.00 | 0.00 | 54 | 1015.6 |
| 20260506205041 | 5 | 360 | 12.9 | 20.9 | 0.00 | 0.00 | 0.00 | 53 | 1015.7 |
| 20260506204551 | 5 | 360 | 0.0 | 6.4 | 0.00 | 0.00 | 0.00 | 56 | 1015.7 |
| 20260506204043 | 5 | 360 | 3.2 | 6.4 | 0.00 | 0.00 | 0.00 | 55 | 1015.8 |
| 20260506203540 | 5 | 360 | 1.6 | 17.7 | 0.00 | 0.00 | 0.00 | 55 | 1015.8 |
| 20260506203042 | 5 | 360 | 6.4 | 17.7 | 0.00 | 0.00 | 0.00 | 55 | 1015.9 |
| 20260506202540 | 5 | 360 | 6.4 | 22.5 | 0.00 | 0.00 | 0.00 | 55 | 1015.9 |
| 20260506202040 | 5 | 360 | 4.8 | 22.5 | 0.00 | 0.00 | 0.00 | 54 | 1016.0 |
| 20260506201541 | 5 | 360 | 4.8 | 14.5 | 0.00 | 0.00 | 0.00 | 55 | 1016.0 |
| 20260506201040 | 5 | 360 | 4.8 | 16.1 | 0.00 | 0.00 | 0.00 | 55 | 1016.0 |
| 20260506200538 | 5 | 360 | 8.0 | 16.1 | 0.00 | 0.00 | 0.00 | 54 | 1016.0 |
| 20260506200044 | 5 | 360 | 8.0 | 22.5 | 0.00 | 0.00 | 0.00 | 56 | 1016.0 |
| 20260506195538 | 5 | 360 | 8.0 | 22.5 | 0.00 | 0.00 | 0.00 | 55 | 1016.1 |
| 20260506195039 | 5 | 360 | 4.8 | 20.9 | 0.00 | 0.00 | 0.00 | 54 | 1016.0 |
| 20260506194544 | 5 | 360 | 9.7 | 20.9 | 0.00 | 0.00 | 0.00 | 53 | 1016.1 |
| 20260506194037 | 5 | 360 | 6.4 | 19.3 | 0.00 | 0.00 | 0.00 | 55 | 1016.1 |
| 20260506193541 | 5 | 360 | 1.6 | 19.3 | 0.00 | 0.00 | 0.00 | 55 | 1016.2 |
| 20260506193037 | 5 | 360 | 8.0 | 25.7 | 0.00 | 0.00 | 0.00 | 54 | 1016.1 |
| 20260506192536 | 5 | 360 | 12.9 | 25.7 | 0.00 | 0.00 | 0.00 | 54 | 1016.2 |
| 20260506192039 | 5 | 360 | 11.3 | 22.5 | 0.00 | 0.00 | 0.00 | 53 | 1016.1 |
| 20260506191534 | 5 | 360 | 6.4 | 20.9 | 0.00 | 0.00 | 0.00 | 55 | 1016.1 |
| 20260506191033 | 5 | 360 | 9.7 | 20.9 | 0.00 | 0.00 | 0.00 | 54 | 1016.1 |
| 20260506190533 | 5 | 360 | 9.7 | 19.3 | 0.00 | 0.00 | 0.00 | 54 | 1016.1 |
| 20260506190032 | 5 | 360 | 9.7 | 19.3 | 0.00 | 0.00 | 0.00 | 54 | 1016.2 |
| 20260506185532 | 5 | 360 | 8.0 | 17.7 | 0.00 | 0.00 | 0.00 | 54 | 1016.3 |
| 20260506185034 | 5 | 360 | 3.2 | 22.5 | 0.00 | 0.00 | 0.00 | 56 | 1016.3 |
| 20260506184531 | 5 | 360 | 14.5 | 24.1 | 0.00 | 0.00 | 0.00 | 54 | 1016.3 |
| 20260506184032 | 5 | 360 | 8.0 | 20.9 | 0.00 | 0.00 | 0.00 | 56 | 1016.3 |
| 20260506183531 | 4 | 360 | 8.0 | 25.7 | 0.00 | 0.00 | 0.00 | 56 | 1016.4 |
| 20260506183132 | 5 | 360 | 17.7 | 25.7 | 0.00 | 0.00 | 0.00 | 54 | 1016.4 |
| 20260506182529 | 5 | 360 | 6.4 | 19.3 | 0.00 | 0.00 | 0.00 | 57 | 1016.4 |
| 20260506182030 | 4 | 360 | 4.8 | 22.5 | 0.00 | 0.00 | 0.00 | 56 | 1016.4 |
| 20260506181529 | 4 | 360 | 11.3 | 20.9 | 0.00 | 0.00 | 0.00 | 56 | 1016.5 |
| 20260506181031 | 4 | 360 | 8.0 | 22.5 | 0.00 | 0.00 | 0.00 | 56 | 1016.5 |
| 20260506180528 | 4 | 360 | 8.0 | 25.7 | 0.00 | 0.00 | 0.00 | 56 | 1016.5 |
| 20260506180025 | 4 | 360 | 17.7 | 25.7 | 0.00 | 0.00 | 0.00 | 55 | 1016.6 |
| 20260506175523 | 4 | 360 | 16.1 | 22.5 | 0.00 | 0.00 | 0.00 | 56 | 1016.6 |
| 20260506175023 | 4 | 360 | 4.8 | 25.7 | 0.00 | 0.00 | 0.00 | 56 | 1016.7 |
| 20260506174523 | 3 | 360 | 17.7 | 25.7 | 0.00 | 0.00 | 0.00 | 56 | 1016.6 |
| 20260506174022 | 4 | 360 | 16.1 | 27.4 | 0.00 | 0.00 | 0.00 | 57 | 1016.7 |
| 20260506173522 | 4 | 360 | 8.0 | 17.7 | 0.00 | 0.00 | 0.00 | 56 | 1016.8 |
| 20260506173022 | 4 | 360 | 3.2 | 14.5 | 0.00 | 0.00 | 0.00 | 58 | 1016.9 |
| 20260506172520 | 3 | 360 | 4.8 | 17.7 | 0.00 | 0.00 | 0.00 | 59 | 1016.9 |
| 20260506172019 | 3 | 360 | 12.9 | 19.3 | 0.00 | 0.00 | 0.00 | 57 | 1016.9 |
| 20260506171532 | 3 | 360 | 12.9 | 20.9 | 0.00 | 0.00 | 0.00 | 57 | 1017.0 |
| 20260506171018 | 4 | 360 | 3.2 | 14.5 | 0.00 | 0.00 | 0.00 | 59 | 1017.0 |
| 20260506170518 | 4 | 360 | 1.6 | 20.9 | 0.00 | 0.00 | 0.00 | 58 | 1017.0 |
| 20260506170017 | 3 | 360 | 3.2 | 20.9 | 0.00 | 0.00 | 0.00 | 58 | 1017.0 |
| 20260506165518 | 3 | 360 | 3.2 | 27.4 | 0.00 | 0.00 | 0.00 | 59 | 1017.0 |
| 20260506165016 | 3 | 360 | 11.3 | 27.4 | 0.00 | 0.00 | 0.00 | 58 | 1017.0 |
| 20260506164519 | 3 | 360 | 4.8 | 22.5 | 0.00 | 0.00 | 0.00 | 60 | 1017.0 |
| 20260506164017 | 3 | 360 | 3.2 | 24.1 | 0.00 | 0.00 | 0.00 | 59 | 1017.1 |
| 20260506163518 | 3 | 360 | 3.2 | 16.1 | 0.00 | 0.00 | 0.00 | 57 | 1017.2 |
| 20260506163015 | 3 | 360 | 3.2 | 17.7 | 0.00 | 0.00 | 0.00 | 60 | 1017.2 |
| 20260506162513 | 3 | 360 | 1.6 | 16.1 | 0.00 | 0.00 | 0.00 | 60 | 1017.2 |
| 20260506162012 | 3 | 360 | 3.2 | 17.7 | 0.00 | 0.00 | 0.00 | 59 | 1017.0 |
| 20260506161512 | 3 | 360 | 1.6 | 20.9 | 0.00 | 0.00 | 0.00 | 59 | 1017.2 |
| 20260506161013 | 3 | 360 | 9.7 | 20.9 | 0.00 | 0.00 | 0.00 | 59 | 1017.2 |
| 20260506160511 | 3 | 360 | 3.2 | 19.3 | 0.00 | 0.00 | 0.00 | 60 | 1017.3 |
| 20260506160010 | 3 | 360 | 1.6 | 14.5 | 0.00 | 0.00 | 0.00 | 60 | 1017.2 |
| 20260506155508 | 3 | 360 | 3.2 | 20.9 | 0.00 | 0.00 | 0.00 | 60 | 1017.3 |
| 20260506155011 | 3 | 360 | 11.3 | 20.9 | 0.00 | 0.00 | 0.00 | 59 | 1017.3 |
| 20260506154507 | 3 | 360 | 1.6 | 9.7 | 0.00 | 0.00 | 0.00 | 60 | 1017.4 |
| 20260506154007 | 3 | 360 | 3.2 | 14.5 | 0.00 | 0.00 | 0.00 | 58 | 1017.4 |
| 20260506153507 | 3 | 360 | 3.2 | 9.7 | 0.00 | 0.00 | 0.00 | 58 | 1017.5 |
| 20260506153005 | 3 | 360 | 3.2 | 12.9 | 0.00 | 0.00 | 0.00 | 59 | 1017.4 |
| 20260506152507 | 3 | 360 | 3.2 | 12.9 | 0.00 | 0.00 | 0.00 | 57 | 1017.4 |
| 20260506152005 | 3 | 360 | 4.8 | 12.9 | 0.00 | 0.00 | 0.00 | 58 | 1017.4 |
| 20260506151504 | 3 | 360 | 3.2 | 16.1 | 0.00 | 0.00 | 0.00 | 57 | 1017.4 |
| 20260506151007 | 3 | 360 | 3.2 | 17.7 | 0.00 | 0.00 | 0.00 | 58 | 1017.4 |
| 20260506150605 | 3 | 360 | 3.2 | 17.7 | 0.00 | 0.00 | 0.00 | 58 | 1017.4 |
| 20260506150007 | 3 | 360 | 3.2 | 12.9 | 0.00 | 0.00 | 0.00 | 59 | 1017.4 |
| 20260506145502 | 2 | 360 | 3.2 | 17.7 | 0.00 | 0.00 | 0.00 | 58 | 1017.3 |
| 20260506145000 | 2 | 360 | 8.0 | 17.7 | 0.00 | 0.00 | 0.00 | 60 | 1017.4 |
| 20260506144617 | 2 | 360 | 1.6 | 6.4 | 0.00 | 0.00 | 0.00 | 61 | 1017.3 |
| 20260506144100 | 2 | 360 | 1.6 | 9.7 | 0.00 | 0.00 | 0.00 | 61 | 1017.4 |
| 20260506143558 | 2 | 360 | 3.2 | 9.7 | 0.00 | 0.00 | 0.00 | 61 | 1017.4 |
| 20260506143100 | 2 | 360 | 1.6 | 8.0 | 0.00 | 0.00 | 0.00 | 61 | 1017.4 |
| 20260506142557 | 2 | 360 | 3.2 | 9.7 | 0.00 | 0.00 | 0.00 | 61 | 1017.4 |
| 20260506142056 | 2 | 360 | 3.2 | 9.7 | 0.00 | 0.00 | 0.00 | 60 | 1017.5 |
| 20260506141558 | 2 | 360 | 1.6 | 8.0 | 0.00 | 0.00 | 0.00 | 61 | 1017.4 |
| 20260506141055 | 2 | 360 | 3.2 | 12.9 | 0.00 | 0.00 | 0.00 | 62 | 1017.3 |
| 20260506140555 | 1 | 360 | 3.2 | 8.0 | 0.00 | 0.00 | 0.00 | 62 | 1017.2 |
| 20260506140105 | 1 | 360 | 3.2 | 6.4 | 0.00 | 0.00 | 0.00 | 62 | 1017.2 |
| 20260506135554 | 1 | 360 | 3.2 | 9.7 | 0.00 | 0.00 | 0.00 | 63 | 1017.2 |
| 20260506135053 | 1 | 360 | 4.8 | 12.9 | 0.00 | 0.00 | 0.00 | 63 | 1017.2 |
| 20260506134553 | 1 | 360 | 1.6 | 12.9 | 0.00 | 0.00 | 0.00 | 64 | 1017.2 |
| 20260506134053 | 1 | 360 | 4.8 | 12.9 | 0.00 | 0.00 | 0.00 | 64 | 1017.2 |
| 20260506133554 | 1 | 360 | 4.8 | 12.9 | 0.00 | 0.00 | 0.00 | 65 | 1017.2 |
| 20260506133052 | 1 | 360 | 1.6 | 6.4 | 0.00 | 0.00 | 0.00 | 65 | 1017.3 |
| 20260506132552 | 1 | 360 | 1.6 | 6.4 | 0.00 | 0.00 | 0.00 | 67 | 1017.2 |
| 20260506132050 | 1 | 360 | 1.6 | 12.9 | 0.00 | 0.00 | 0.00 | 67 | 1017.0 |
| 20260506131553 | 1 | 360 | 0.0 | 12.9 | 0.00 | 0.00 | 0.00 | 68 | 1017.1 |
| 20260506131049 | 1 | 360 | 1.6 | 8.0 | 0.00 | 0.00 | 0.00 | 69 | 1017.0 |
| 20260506130550 | 1 | 360 | 0.0 | 8.0 | 0.00 | 0.00 | 0.00 | 69 | 1016.9 |
| 20260506130105 | 1 | 360 | 1.6 | 9.7 | 0.00 | 0.00 | 0.00 | 70 | 1017.0 |
| 20260506125548 | 1 | 360 | 3.2 | 9.7 | 0.00 | 0.00 | 0.00 | 69 | 1017.0 |
| 20260506125047 | 1 | 360 | 1.6 | 4.8 | 0.00 | 0.00 | 0.00 | 70 | 1016.9 |
| 20260506124547 | 0 | 360 | 1.6 | 6.4 | 0.00 | 0.00 | 0.00 | 70 | 1016.9 |
| 20260506124049 | 0 | 360 | 1.6 | 6.4 | 0.00 | 0.00 | 0.00 | 70 | 1016.8 |
| 20260506123548 | 0 | 360 | 0.0 | 8.0 | 0.00 | 0.00 | 0.00 | 70 | 1016.8 |
| 20260506123047 | 0 | 360 | 1.6 | 8.0 | 0.00 | 0.00 | 0.00 | 70 | 1016.8 |
| 20260506122546 | 0 | 360 | 0.0 | 4.8 | 0.00 | 0.00 | 0.00 | 70 | 1016.7 |
| 20260506122045 | 0 | 360 | 0.0 | 4.8 | 0.00 | 0.00 | 0.00 | 71 | 1016.7 |
| 20260506121544 | 0 | 360 | 0.0 | 4.8 | 0.00 | 0.00 | 0.00 | 70 | 1016.6 |
| 20260506121043 | 0 | 360 | 0.0 | 4.8 | 0.00 | 0.00 | 0.00 | 71 | 1016.5 |
| 20260506120543 | 0 | 360 | 0.0 | 4.8 | 0.00 | 0.00 | 0.00 | 71 | 1016.4 |
| 20260506120043 | 0 | 360 | 0.0 | 4.8 | 0.00 | 0.00 | 0.00 | 71 | 1016.4 |
| 20260506115542 | 0 | 360 | 0.0 | 4.8 | 0.00 | 0.00 | 0.00 | 70 | 1016.3 |
| 20260506115043 | 0 | 360 | 0.0 | 4.8 | 0.00 | 0.00 | 0.00 | 70 | 1016.3 |
| 20260506114545 | 0 | 360 | 0.0 | 4.8 | 0.00 | 0.00 | 0.00 | 70 | 1016.2 |
| 20260506114041 | 0 | 360 | 1.6 | 4.8 | 0.00 | 0.00 | 0.00 | 70 | 1016.2 |
| 20260506113541 | 0 | 360 | 0.0 | 3.2 | 0.00 | 0.00 | 0.00 | 71 | 1016.3 |
| 20260506113040 | 0 | 360 | 0.0 | 3.2 | 0.00 | 0.00 | 0.00 | 70 | 1016.2 |
| 20260506112540 | 0 | 360 | 0.0 | 3.2 | 0.00 | 0.00 | 0.00 | 70 | 1016.1 |
| 20260506112039 | 0 | 360 | 0.0 | 3.2 | 0.00 | 0.00 | 0.00 | 70 | 1016.1 |
| 20260506111541 | 0 | 360 | 0.0 | 3.2 | 0.00 | 0.00 | 0.00 | 70 | 1016.1 |
| 20260506111038 | 0 | 360 | 0.0 | 3.2 | 0.00 | 0.00 | 0.00 | 70 | 1016.1 |
| 20260506110539 | 0 | 360 | 0.0 | 1.6 | 0.00 | 0.00 | 0.00 | 70 | 1016.1 |
| 20260506110046 | 1 | 360 | 0.0 | 3.2 | 0.00 | 0.00 | 0.00 | 70 | 1016.1 |
| 20260506105538 | 0 | 360 | 1.6 | 4.8 | 0.00 | 0.00 | 0.00 | 69 | 1016.0 |
| 20260506105038 | 0 | 360 | 0.0 | 4.8 | 0.00 | 0.00 | 0.00 | 70 | 1015.9 |
| 20260506104537 | 0 | 360 | 0.0 | 4.8 | 0.00 | 0.00 | 0.00 | 70 | 1015.9 |
| 20260506104037 | 1 | 360 | 0.0 | 3.2 | 0.00 | 0.00 | 0.00 | 70 | 1015.8 |
| 20260506103537 | 1 | 360 | 0.0 | 3.2 | 0.00 | 0.00 | 0.00 | 70 | 1015.9 |
| 20260506103036 | 1 | 360 | 0.0 | 3.2 | 0.00 | 0.00 | 0.00 | 70 | 1015.9 |
| 20260506102539 | 1 | 360 | 0.0 | 3.2 | 0.00 | 0.00 | 0.00 | 70 | 1015.8 |
| 20260506102036 | 1 | 360 | 0.0 | 3.2 | 0.00 | 0.00 | 0.00 | 70 | 1015.8 |
| 20260506101549 | 1 | 360 | 0.0 | 1.6 | 0.00 | 0.00 | 0.00 | 71 | 1015.7 |
| 20260506101033 | 1 | 360 | 0.0 | 3.2 | 0.00 | 0.00 | 0.00 | 71 | 1015.7 |
| 20260506100534 | 1 | 360 | 0.0 | 3.2 | 0.00 | 0.00 | 0.00 | 70 | 1015.7 |
| 20260506100035 | 1 | 360 | 0.0 | 3.2 | 0.00 | 0.00 | 0.00 | 70 | 1015.7 |
| 20260506095533 | 1 | 360 | 0.0 | 3.2 | 0.00 | 0.00 | 0.00 | 70 | 1015.6 |
| 20260506095032 | 1 | 360 | 0.0 | 3.2 | 0.00 | 0.00 | 0.00 | 70 | 1015.6 |
| 20260506094531 | 1 | 360 | 0.0 | 3.2 | 0.00 | 0.00 | 0.00 | 70 | 1015.6 |
| 20260506094032 | 1 | 360 | 0.0 | 8.0 | 0.00 | 0.00 | 0.00 | 70 | 1015.6 |
| 20260506093531 | 1 | 360 | 3.2 | 8.0 | 0.00 | 0.00 | 0.00 | 69 | 1015.5 |
| 20260506093032 | 1 | 360 | 1.6 | 6.4 | 0.00 | 0.00 | 0.00 | 69 | 1015.5 |
| 20260506092530 | 1 | 360 | 1.6 | 8.0 | 0.00 | 0.00 | 0.00 | 69 | 1015.5 |
| 20260506092032 | 1 | 360 | 1.6 | 8.0 | 0.00 | 0.00 | 0.00 | 69 | 1015.5 |
| 20260506091530 | 1 | 360 | 3.2 | 8.0 | 0.00 | 0.00 | 0.00 | 69 | 1015.5 |
| 20260506091028 | 1 | 360 | 3.2 | 8.0 | 0.00 | 0.00 | 0.00 | 69 | 1015.5 |
| 20260506090527 | 1 | 360 | 0.0 | 4.8 | 0.00 | 0.00 | 0.00 | 69 | 1015.4 |
| 20260506090027 | 1 | 360 | 0.0 | 4.8 | 0.00 | 0.00 | 0.00 | 69 | 1015.4 |
| 20260506085527 | 1 | 360 | 0.0 | 8.0 | 0.00 | 0.00 | 0.00 | 69 | 1015.5 |
| 20260506085027 | 1 | 360 | 3.2 | 8.0 | 0.00 | 0.00 | 0.00 | 69 | 1015.5 |
| 20260506084529 | 1 | 360 | 1.6 | 6.4 | 0.00 | 0.00 | 0.00 | 68 | 1015.4 |
| 20260506084026 | 1 | 360 | 1.6 | 9.7 | 0.00 | 0.00 | 0.00 | 68 | 1015.4 |
| 20260506083529 | 1 | 360 | 3.2 | 9.7 | 0.00 | 0.00 | 0.00 | 68 | 1015.4 |
| 20260506083024 | 1 | 360 | 3.2 | 9.7 | 0.00 | 0.00 | 0.00 | 68 | 1015.3 |
| 20260506082524 | 1 | 360 | 1.6 | 9.7 | 0.00 | 0.00 | 0.00 | 68 | 1015.3 |
| 20260506082026 | 1 | 360 | 1.6 | 8.0 | 0.00 | 0.00 | 0.00 | 69 | 1015.3 |
| 20260506081523 | 1 | 360 | 1.6 | 8.0 | 0.00 | 0.00 | 0.00 | 68 | 1015.3 |
| 20260506081023 | 1 | 360 | 1.6 | 8.0 | 0.00 | 0.00 | 0.00 | 68 | 1015.3 |
| 20260506080522 | 1 | 360 | 1.6 | 4.8 | 0.00 | 0.00 | 0.00 | 68 | 1015.2 |
| 20260506073521 | 1 | 360 | 3.2 | 6.4 | 0.00 | 0.00 | 0.00 | 68 | 1015.4 |
| 20260506073019 | 1 | 360 | 3.2 | 8.0 | 0.00 | 0.00 | 0.00 | 68 | 1015.3 |
| 20260506072518 | 1 | 360 | 3.2 | 12.9 | 0.00 | 0.00 | 0.00 | 68 | 1015.3 |
| 20260506072018 | 1 | 360 | 4.8 | 12.9 | 0.00 | 0.00 | 0.00 | 67 | 1015.3 |
| 20260506071518 | 1 | 360 | 3.2 | 9.7 | 0.00 | 0.00 | 0.00 | 68 | 1015.4 |
| 20260506071015 | 1 | 360 | 1.6 | 9.7 | 0.00 | 0.00 | 0.00 | 67 | 1015.5 |
| 20260506070516 | 1 | 360 | 1.6 | 6.4 | 0.00 | 0.00 | 0.00 | 67 | 1015.4 |
| 20260506062013 | 1 | 360 | 3.2 | 8.0 | 0.00 | 0.00 | 0.00 | 67 | 1015.3 |
| 20260506061512 | 1 | 360 | 3.2 | 6.4 | 0.00 | 0.00 | 0.00 | 67 | 1015.3 |
| 20260506061019 | 1 | 360 | 1.6 | 6.4 | 0.00 | 0.00 | 0.00 | 67 | 1015.3 |
| 20260506060511 | 1 | 360 | 1.6 | 6.4 | 0.00 | 0.00 | 0.00 | 67 | 1015.3 |
| 20260506051004 | 2 | 360 | 3.2 | 6.4 | 0.00 | 0.00 | 0.00 | 67 | 1015.0 |
| 20260506050508 | 2 | 360 | 1.6 | 6.4 | 0.00 | 0.00 | 0.00 | 67 | 1015.0 |
| 20260506045002 | 2 | 360 | 0.0 | 4.8 | 0.00 | 0.00 | 0.00 | 67 | 1014.9 |